Lid_Strength_Index
-0 -0 0 0 -0 -0 0 1 2 4 3 1 1 -1 -1 -1 -2 -2 -2 -1 -0 0 0 1 1 1 1 0 -0 -0 0 -0 -0 0 -0 -0 -1 -1
0 -0 0 0 -0 -0 0 0 1 2 4 1 1 -1 -1 -1 -2 -2 -2 -0 0 1 1 1 1 1 1 0 0 -0 0 -0 0 1 0 1 0 -0
-0 0 0 -0 0 0 0 0 1 1 3 1 0 -1 -1 -1 -1 -2 -2 -2 -1 1 1 1 1 1 1 0 0 0 0 0 1 1 1 1 1 1
1 1 1 0 0 0 1 1 1 0 1 3 1 1 0 -1 -1 -1 -1 -1 -1 -1 1 2 2 1 2 1 2 2 3 2 1 1 1 1 1 1
1 1 1 1 1 1 1 1 1 1 1 2 2 1 0 -0 -0 -1 -0 -1 -1 -0 1 2 2 1 2 2 3 3 4 5 4 4 3 3 2 2
-0 1 0 0 1 1 1 1 1 1 1 2 2 2 1 -0 0 1 1 0 0 -1 -1 1 -0 1 1 1 3 3 4 6 6 6 6 6 5 4
-0 -0 -0 0 1 1 1 1 1 1 2 2 2 2 2 2 2 1 1 1 0 -0 0 -0 -0 -1 -1 2 1 2 4 4 6 7 7 7 7 7
0 -0 -0 0 1 3 3 3 1 1 2 2 2 2 2 1 1 1 1 2 3 -1 0 1 -0 0 -0 -1 3 4 4 5 5 6 7 7 7 7
-0 0 0 -0 0 0 2 4 3 3 3 1 2 2 2 1 1 1 1 2 2 1 0 2 0 1 -0 -0 4 5 5 6 6 6 6 7 7 7
0 -0 0 0 0 0 1 1 1 1 1 1 1 1 0 -0 0 0 1 1 1 0 -0 3 1 1 0 -0 5 5 5 6 7 7 7 7 7 8
0 -0 -0 0 1 2 1 2 1 1 2 3 1 3 3 3 1 0 2 2 3 2 0 2 1 1 1 0 -0 5 6 7 7 7 7 7 8 9
0 0 1 1 2 4 1 2 3 2 1 0 0 1 3 1 5 -0 1 3 3 3 1 2 2 2 3 0 -0 -0 -0 7 7 7 7 8 9 0
1 1 0 2 3 4 5 1 2 1 1 1 1 1 0 0 0 0 -0 1 2 3 1 0 2 2 2 2 1 0 -0 4 1 3 10 10 10 4
1 1 0 3 4 6 7 5 7 6 2 2 2 2 2 1 1 0 -0 -0 -0 0 -0 -1 2 2 2 3 4 1 0 -0 1 1 1 7 10 9
0 1 2 3 6 7 8 7 8 4 3 3 2 2 1 0 -0 -0 -1 -1 -0 -0 -0 -1 1 1 2 3 3 2 2 1 1 2 3 3 4 4
1 1 1 1 2 2 2 7 4 2 3 2 2 2 1 1 2 1 1 1 1 1 -1 -1 -0 1 2 2 2 3 2 3 2 2 2 3 4 3
6 4 2 2 2 2 2 2 4 2 2 2 2 2 2 2 2 0 1 1 2 3 2 1 -0 1 3 1 3 2 2 2 2 2 3 4 4 3
7 5 4 3 3 3 3 3 2 3 3 3 2 2 2 2 2 1 1 2 3 2 2 2 3 4 4 5 7 2 2 3 3 3 4 5 6 6
7 6 5 3 3 3 3 3 3 2 2 2 2 2 1 1 1 2 2 2 3 3 4 4 2 3 5 6 6 8 4 3 3 4 4 4 5 5
6 5 4 3 3 3 3 4 4 3 3 3 2 2 1 2 2 3 3 4 4 4 5 5 5 5 5 6 8 8 10 5 6 7 8 8 9 8
3 3 2 2 3 3 3 4 3 3 3 2 2 2 1 2 2 2 3 6 5 3 5 5 4 5 4 4 7 8 8 9 7 5 6 6 7 6
3 3 3 3 2 2 2 3 4 3 3 3 3 3 3 2 3 3 2 2 2 3 4 4 3 4 5 6 7 6 7 7 8 8 9 7 5 7
6 5 4 4 3 3 4 3 4 4 5 3 3 4 3 4 4 3 3 3 4 4 4 5 4 5 6 7 7 7 7 7 6 6 6 8 8 8